Temp
6 7 8 10 11 11 10 15 17 13 14 17 19 21 22 21 23 22 23 25 24 24 24 23 24 24 24 21 23 24 22 24 22 23 22 22 23 24 24 22 21 20 20 24
6 6 7 10 10 10 12 17 17 11 13 18 18 20 22 22 23 23 23 24 24 23 23 23 23 22 19 19 22 23 22 23 22 22 22 22 23 23 23 21 20 21 20 24
5 6 6 10 11 11 16 19 17 15 16 20 21 21 22 22 21 22 23 22 22 22 22 21 21 21 19 19 20 13 20 22 23 23 24 23 22 22 22 23 21 22 22 25
5 5 7 9 11 12 14 19 19 20 17 18 21 22 23 23 22 22 23 22 24 23 21 21 21 21 19 19 14 19 21 22 21 20 20 20 22 22 22 22 23 21 24 23
6 6 8 10 11 12 15 19 19 17 20 20 20 19 21 23 22 23 23 24 23 23 23 24 22 22 21 22 19 20 19 20 19 19 18 19 19 21 22 22 23 22 23 23
6 7 9 10 11 10 17 14 15 21 14 19 20 21 22 23 22 19 20 23 22 21 20 20 21 20 21 21 21 19 20 19 19 20 17 18 16 20 22 22 22 22 22 23
7 8 10 11 11 13 18 17 19 20 17 19 21 21 21 22 22 21 19 21 22 17 18 19 20 19 19 19 17 18 17 18 16 17 14 17 23 20 20 22 22 23 22 23
8 10 10 11 12 13 15 15 19 18 13 19 19 20 20 19 19 18 19 17 17 18 19 19 19 17 16 16 16 17 18 17 14 16 18 20 23 20 19 19 22 22 22 22
9 10 11 12 12 13 14 15 16 19 15 16 21 20 20 20 19 18 15 14 15 16 17 18 18 19 20 18 17 15 16 16 18 14 17 17 20 18 18 19 20 20 20 20
10 11 11 12 13 13 15 14 16 19 17 17 18 20 19 19 20 19 16 16 16 16 16 16 18 19 18 19 16 13 14 13 15 15 16 18 20 18 18 18 20 19 18 19
11 11 11 12 13 13 15 13 15 18 16 15 16 16 18 17 20 19 16 18 16 16 16 17 17 16 17 18 18 17 17 15 14 13 14 16 17 17 18 19 19 18 18 18
11 11 12 13 14 14 15 13 14 14 17 15 13 12 12 14 17 19 17 20 18 20 18 14 13 13 10 16 19 15 17 18 18 18 19 18 18 19 18 17 17 18 17 18
12 12 13 14 14 15 15 13 14 14 15 15 17 15 13 12 12 13 19 16 17 17 15 16 14 12 15 13 17 16 16 15 16 16 19 18 18 18 18 18 17 17 17 17
13 13 14 14 14 15 16 15 14 14 14 11 14 12 13 10 12 14 14 15 13 14 15 13 11 13 14 15 16 17 17 16 17 16 18 19 18 17 16 16 16 16 16 14
14 14 14 14 14 15 16 15 14 15 16 11 14 13 11 11 13 13 14 15 16 16 14 11 14 13 13 11 12 15 15 16 16 17 15 15 17 16 15 14 15 14 14 12
14 14 14 14 15 17 18 17 14 13 11 15 12 11 12 11 12 13 13 14 15 16 15 10 12 11 13 11 16 12 13 13 13 14 14 14 14 14 12 12 12 11 11 10
14 14 14 14 14 17 16 16 11 14 12 13 10 12 11 9 12 10 12 12 13 14 11 8 10 10 13 10 15 11 11 12 12 12 13 14 11 10 10 9 8 6 5 4
14 14 14 15 15 15 14 12 13 13 13 14 11 10 12 10 10 9 9 10 12 10 9 9 9 9 10 11 8 9 9 10 11 10 10 10 9 9 8 6 4 3 3 1
13 14 15 14 13 12 11 11 12 13 14 13 8 12 12 9 7 7 9 10 9 9 9 9 11 9 9 6 6 6 6 6 7 8 8 7 6 5 4 3 2 2 2 1
14 16 13 10 8 9 11 12 13 12 10 9 7 8 8 10 8 8 8 8 9 10 9 8 9 5 5 5 4 4 5 7 7 7 4 4 3 3 3 3 3 4 4 5
13 10 9 9 10 11 11 9 11 11 9 8 7 9 9 8 9 8 7 8 8 10 10 10 9 6 5 4 4 5 5 5 6 6 5 5 4 4 3 3 3 3 3 3
9 10 9 9 10 11 8 7 7 9 9 6 8 7 8 6 8 8 7 7 7 9 9 9 9 6 4 4 4 4 4 4 5 5 5 5 5 4 4 4 4 3 2 1
10 9 7 11 7 9 11 9 9 8 6 5 6 7 7 6 8 7 8 8 9 9 8 9 7 5 3 4 5 5 5 4 5 5 4 4 3 2 2 2 1 1 2 1
6 7 8 8 9 7 7 7 7 4 4 5 6 6 7 6 7 6 9 6 7 8 9 8 5 4 4 5 5 5 4 1 4 4 3 2 1 1 0 -1 -1 -1 -1 -1
6 7 6 5 3 3 3 2 3 3 3 4 6 5 7 6 6 6 7 7 8 8 8 6 4 4 5 5 5 4 3 1 3 4 1 -0 -0 0 0 -1 -2 -2 -3 -3
4 4 4 4 4 4 3 3 3 3 3 3 4 6 8 6 7 7 8 8 8 7 5 3 2 3 2 3 4 3 3 3 3 2 1 -1 -2 -2 -1 -2 -3 -4 -4 -5
3 4 3 3 4 4 3 3 2 1 3 5 6 7 6 5 7 6 7 7 6 4 3 3 4 3 2 1 1 1 2 2 1 -0 -2 -2 -3 -3 -3 -2 -3 -4 -4 -5
Height
705 707 713 722 729 740 752 750 750 755 758 765 758 754 748 746 747 749 749 747 751 758 761 767 767 770 767 772 769 772 777 778 792 787 788 786 784 784 788 799 807 812 810 789
695 702 707 715 723 730 738 739 742 755 757 750 755 749 746 743 744 745 748 749 748 753 759 771 767 769 777 777 773 774 776 783 794 794 792 788 787 785 786 796 800 804 812 785
688 696 705 710 718 724 729 730 742 752 752 740 739 743 743 745 742 743 744 749 750 755 762 765 771 773 778 779 777 789 778 779 778 786 777 776 788 786 786 786 800 790 789 773
683 689 696 703 711 718 723 716 721 724 738 742 735 734 736 740 745 741 740 748 744 749 765 767 770 771 779 780 788 780 777 781 783 786 789 788 783 783 785 786 781 792 773 776
679 688 691 697 704 714 716 709 716 727 725 733 735 739 737 734 742 739 741 741 745 748 754 751 763 762 767 767 780 778 782 785 790 793 795 794 793 783 781 779 776 779 772 771
672 678 685 693 699 709 704 711 714 712 740 731 732 731 733 731 735 747 744 738 746 753 757 758 757 764 763 764 771 779 782 788 792 792 802 799 805 780 774 771 770 771 775 762
665 671 679 688 696 701 701 703 708 711 731 730 728 730 731 732 734 740 749 745 745 765 762 762 765 769 773 775 782 780 788 788 802 801 816 808 765 771 771 767 763 760 763 759
661 668 678 685 692 698 703 701 703 709 737 725 730 729 734 739 741 747 750 757 757 761 762 766 775 781 787 787 789 788 785 790 810 806 795 779 763 772 777 777 765 758 759 758
662 669 676 682 689 697 701 700 700 703 722 730 720 730 731 736 741 750 762 766 766 765 767 771 778 779 771 783 787 793 793 792 790 811 799 795 771 776 776 775 774 765 764 764
661 667 673 679 688 696 700 698 700 703 715 724 724 724 731 732 735 745 759 765 768 766 770 775 775 773 778 778 788 804 800 803 801 802 799 782 769 774 776 782 777 767 768 766
659 665 671 678 686 695 697 701 703 704 717 726 727 727 728 733 730 739 755 759 764 767 771 772 773 779 777 776 775 783 783 792 800 807 802 795 774 778 780 771 767 770 769 769
658 664 670 677 685 695 697 702 705 707 714 728 731 732 732 732 733 734 746 742 747 748 760 774 782 788 799 780 773 784 782 775 775 779 771 769 772 769 770 772 772 770 771 769
657 662 668 676 685 694 697 701 705 710 722 731 729 732 735 734 735 736 737 748 745 749 753 762 773 783 777 790 775 777 776 781 779 781 765 768 769 770 769 769 770 769 769 769
655 660 667 677 687 695 698 700 705 710 719 734 736 737 737 738 736 736 736 736 746 752 754 763 777 775 777 776 772 772 774 779 775 775 766 766 766 770 772 771 769 769 769 771
655 661 669 678 689 696 698 700 706 710 717 731 735 740 743 740 738 738 739 740 742 748 757 768 767 773 778 788 784 778 779 775 777 772 777 776 771 772 774 773 771 771 770 774
656 664 673 682 691 696 695 703 713 712 714 719 738 746 746 745 744 743 744 745 747 748 754 773 771 778 773 782 771 787 787 786 785 779 780 778 778 778 780 778 778 778 778 781
665 672 679 687 693 695 696 702 711 711 713 718 742 742 748 749 746 751 751 752 754 753 767 778 777 778 773 785 769 791 790 788 787 786 781 776 784 786 788 788 790 791 793 797
674 679 686 691 694 698 703 706 708 710 711 715 737 748 746 753 754 758 762 760 757 768 775 779 780 784 783 782 796 795 793 790 788 790 788 789 792 793 795 798 801 802 804 807
682 686 689 694 700 708 714 714 712 711 715 721 740 738 745 757 762 765 764 762 768 775 776 778 776 786 787 802 802 801 801 799 797 796 795 798 799 803 805 806 808 809 812 812
685 688 692 705 711 711 712 714 714 717 726 734 750 754 756 756 762 768 769 771 772 769 779 781 780 800 804 806 807 806 803 799 797 798 804 806 807 809 811 811 810 810 809 809
690 700 712 713 712 714 718 726 727 731 740 747 754 751 753 763 759 766 773 771 775 768 772 772 780 794 804 807 807 805 805 804 802 802 805 807 808 810 811 812 813 813 813 813
699 701 709 713 717 718 729 741 743 738 743 754 752 757 758 765 763 766 773 775 779 774 778 775 778 797 804 806 807 808 809 809 809 809 810 811 812 813 814 814 815 815 814 813
703 706 717 717 732 729 724 735 741 744 754 757 758 759 762 765 764 771 770 771 771 775 778 771 785 798 805 807 808 810 812 813 813 813 814 814 815 816 817 817 817 816 815 815
719 725 732 737 736 742 745 744 747 760 759 758 757 762 762 768 767 773 765 780 779 773 769 775 793 798 804 806 808 810 812 815 814 815 816 817 818 819 819 818 818 817 817 816
731 734 742 748 758 758 759 760 760 763 763 761 760 764 764 770 771 775 774 774 767 767 768 783 794 800 803 807 810 812 814 816 816 817 819 820 820 820 821 821 820 820 819 816
743 749 753 757 756 759 760 761 763 765 765 765 764 766 762 770 768 769 766 763 762 776 784 793 799 801 806 809 812 813 815 816 817 819 820 821 822 823 824 823 822 820 819 817
752 756 760 759 760 762 764 765 767 767 766 764 764 761 768 775 768 770 770 771 776 785 792 796 798 802 807 811 814 815 817 818 820 821 823 825 825 825 825 823 822 821 819 817
Wind_Speed
26 29 37 41 38 33 30 12 9 15 25 9 9 12 9 4 7 5 6 7 7 12 11 7 8 10 2 4 4 5 2 1 4 6 3 1 3 6 9 4 4 1 2 3
32 36 22 39 40 42 26 9 5 4 7 12 10 7 5 5 6 9 9 7 6 5 9 6 5 6 2 3 5 7 6 3 4 5 5 5 7 9 5 4 1 6 3 2
30 39 32 44 42 44 26 9 7 4 6 4 16 13 12 8 2 5 4 5 4 7 6 1 7 8 2 2 2 3 3 3 7 10 2 0 6 11 12 11 4 5 9 10
39 34 42 48 45 48 16 7 7 10 12 10 13 15 15 11 7 4 6 4 8 8 5 6 6 6 6 3 5 2 3 6 4 2 0 3 5 8 13 16 14 8 12 11
36 30 45 46 45 48 13 8 5 4 14 12 13 11 11 15 6 5 7 8 10 7 5 7 10 10 7 5 6 5 2 3 3 3 3 3 7 10 11 15 16 15 19 20
35 44 44 44 46 36 10 4 3 9 4 10 11 11 11 14 10 3 3 12 8 6 4 5 8 7 8 5 7 6 4 6 4 2 2 3 6 16 18 13 13 15 14 16
38 44 43 42 44 39 12 5 5 6 6 10 12 12 8 14 7 7 4 3 4 5 16 16 14 14 12 10 9 3 5 5 2 1 1 3 1 1 3 13 17 15 17 13
41 39 40 40 42 40 6 7 4 4 4 10 10 12 7 10 7 6 6 4 3 14 3 4 4 2 2 5 7 5 1 4 3 2 4 6 12 3 3 4 6 5 11 11
37 37 37 37 43 42 5 7 7 3 7 8 11 11 12 7 5 5 4 6 10 2 2 2 4 4 3 4 4 3 4 3 1 3 3 3 3 3 1 2 5 6 3 4
34 34 34 37 48 42 7 5 8 3 4 4 7 10 10 5 5 5 6 8 3 1 2 2 2 3 1 5 5 4 2 1 4 3 4 6 1 2 2 3 3 6 4 6
30 32 33 37 50 46 7 7 6 2 3 4 1 2 5 5 6 6 8 6 2 2 2 2 3 2 4 3 2 4 5 6 3 3 3 4 5 6 3 4 4 5 4 5
29 31 33 39 48 42 9 6 12 14 6 4 6 10 7 3 3 6 11 1 6 5 4 1 3 2 1 1 3 3 3 3 1 6 1 3 6 5 3 4 8 7 6 5
29 31 34 41 48 35 4 12 14 9 4 4 4 4 5 8 4 0 4 2 4 4 3 4 2 3 3 4 4 3 4 4 3 1 2 6 8 8 9 9 11 11 11 10
28 31 36 42 47 26 11 11 12 9 4 4 3 4 4 10 3 0 1 9 9 7 2 3 3 3 3 2 1 2 2 7 4 4 9 6 2 3 6 10 9 9 7 6
28 32 36 41 40 20 16 18 8 4 1 4 4 3 9 12 8 10 11 14 8 3 3 2 2 3 4 1 0 1 1 3 2 2 6 4 7 10 10 10 10 9 6 3
28 34 37 42 32 27 11 4 2 6 5 4 3 2 4 9 12 16 13 7 5 3 3 3 3 2 1 3 4 4 5 5 6 5 11 9 8 6 11 9 8 8 9 10
32 37 37 33 28 19 6 4 2 7 5 3 4 3 3 6 5 4 4 7 4 3 3 3 3 2 2 3 3 6 8 8 4 9 9 2 12 6 10 12 16 20 22 21
30 30 28 25 21 20 10 11 5 6 5 3 4 2 2 8 3 2 4 2 2 5 3 2 2 2 1 2 5 7 9 10 4 9 7 7 8 11 13 17 18 17 15 15
24 22 19 11 8 4 4 2 10 14 6 3 3 4 3 3 2 2 2 2 3 0 2 2 2 2 1 2 5 7 8 7 3 8 11 12 13 13 14 15 12 11 8 7
12 10 8 3 3 4 3 3 3 5 5 5 3 1 3 0 1 2 1 2 2 2 2 1 2 2 4 2 1 2 5 8 9 7 9 11 12 11 9 9 10 10 8 4
5 3 2 2 3 2 3 3 4 2 3 3 2 2 3 2 2 2 2 2 1 3 3 3 3 3 3 1 4 5 8 10 13 15 14 15 13 10 8 5 4 3 4 6
7 12 8 3 4 3 6 2 1 4 2 1 2 2 3 2 1 3 1 3 1 3 3 2 4 4 5 5 6 9 11 12 13 13 12 10 9 7 6 5 5 6 5 6
5 6 5 4 4 6 2 4 1 2 1 1 2 3 1 2 2 3 2 3 2 5 2 2 2 7 7 8 8 9 8 7 8 8 7 6 7 7 7 6 7 8 7 8
4 4 5 4 2 3 2 3 3 1 1 2 3 3 2 1 3 1 3 2 3 4 4 3 5 7 10 9 6 7 6 4 6 8 8 8 8 8 10 11 11 11 10 9
4 3 3 3 2 2 2 1 2 2 1 1 3 3 2 2 2 1 3 4 3 1 2 4 6 10 10 9 7 7 6 5 6 7 8 9 8 8 9 11 11 11 11 13
3 4 3 2 2 2 2 3 2 2 1 0 2 2 2 2 2 3 2 3 2 3 3 4 7 10 7 6 7 6 7 7 8 8 8 9 10 9 7 6 10 12 10 12
3 3 3 2 4 3 2 2 2 3 1 2 1 2 2 2 2 3 0 2 3 6 6 5 8 9 6 8 7 7 8 8 9 10 9 7 6 5 7 10 13 13 11 12
Wind_Direction
229 228 213 202 195 183 164 171 203 157 150 178 199 212 203 175 173 174 196 201 170 190 175 171 191 195 237 161 180 181 117 160 183 199 122 298 269 227 205 235 186 222 311 294
242 230 216 200 194 173 162 172 169 167 199 190 194 188 197 204 162 185 180 165 184 174 173 175 190 182 81 186 204 172 172 197 194 180 177 189 224 198 200 129 146 211 190 255
233 229 236 203 194 180 174 162 181 142 205 242 190 184 189 175 154 157 165 137 138 142 160 113 167 161 143 140 162 44 179 187 239 242 278 204 200 204 203 208 209 226 239 273
218 236 205 201 193 183 198 189 188 169 185 203 198 188 181 176 164 193 179 147 193 167 150 159 166 162 147 143 151 133 226 231 214 234 164 234 252 230 210 217 234 224 268 254
221 218 199 199 191 184 217 156 160 159 164 180 183 180 199 180 152 182 163 185 160 166 169 199 186 169 188 174 173 180 171 200 187 231 216 265 266 248 238 234 247 252 262 266
227 202 201 199 191 178 180 131 120 176 172 179 176 187 173 184 146 73 40 146 137 134 93 71 70 81 83 118 167 164 174 157 164 236 353 277 277 242 227 226 227 237 246 258
200 197 197 197 193 182 179 155 150 153 162 194 191 169 170 171 169 131 95 115 110 113 123 108 86 81 81 83 70 54 144 133 78 120 222 222 316 205 284 248 255 249 259 266
195 196 196 195 194 186 225 166 165 124 127 189 181 176 146 126 108 98 103 49 64 145 146 110 109 66 73 67 53 53 29 137 120 177 218 314 280 191 221 210 290 336 270 274
195 193 194 194 189 188 201 156 122 113 127 206 174 165 174 153 138 118 85 80 116 124 83 123 154 183 176 164 141 71 80 64 235 149 225 253 53 69 200 232 281 9 298 226
190 191 193 192 185 187 181 126 120 101 106 137 168 176 178 148 135 109 129 150 189 305 104 108 159 168 341 171 181 175 117 56 210 177 241 278 292 239 159 243 20 347 276 205
187 190 190 188 186 188 165 111 108 81 86 109 11 135 151 139 175 149 140 135 191 128 134 160 160 150 182 193 135 183 179 164 179 142 204 271 157 144 234 12 334 326 292 250
188 190 188 185 184 185 153 101 105 90 73 83 86 82 60 42 31 124 173 39 151 161 118 129 112 136 145 144 193 195 222 225 224 217 228 105 197 286 329 318 301 307 302 286
184 184 182 179 178 181 171 126 123 91 101 109 153 81 30 40 26 324 146 197 144 151 26 135 116 134 164 163 219 167 216 173 231 249 167 249 256 274 285 288 284 293 284 283
174 175 174 176 177 179 182 136 132 93 85 114 96 14 40 351 3 300 22 126 100 110 111 107 134 122 228 184 103 234 18 167 200 248 285 301 261 322 334 318 315 300 299 305
163 165 168 170 168 169 145 123 107 135 302 132 118 118 28 29 67 87 109 126 121 132 103 97 109 111 142 71 247 208 268 18 243 275 357 316 313 341 338 321 328 332 317 349
149 155 160 161 165 159 128 88 55 153 172 114 123 69 27 35 69 70 61 56 65 74 86 97 92 67 199 146 179 75 25 4 339 300 321 313 331 28 7 15 22 48 66 74
141 146 152 161 165 170 87 99 162 157 149 102 101 108 43 358 33 43 34 36 63 49 95 70 108 108 196 165 178 17 346 339 3 2 336 132 32 28 44 66 76 78 78 78
122 128 134 136 124 96 55 43 91 138 107 73 112 85 134 8 52 81 357 53 60 34 97 105 102 104 41 144 27 356 356 340 75 21 42 71 78 75 71 76 83 80 77 77
105 105 104 105 67 84 127 139 74 68 54 104 81 130 145 15 65 48 65 10 71 39 92 93 163 137 110 42 349 1 357 352 344 69 72 74 81 85 92 94 87 88 88 100
79 92 44 51 27 74 39 39 30 27 24 33 81 22 108 31 124 75 93 30 101 147 77 130 74 92 92 55 20 341 357 8 159 113 89 98 97 96 93 102 120 133 155 154
51 68 81 134 46 65 34 68 49 353 63 36 77 67 117 17 126 116 6 102 70 159 138 207 142 137 151 155 109 87 74 80 87 100 112 119 124 132 135 131 89 34 354 344
89 111 108 76 34 59 78 41 26 34 97 74 83 79 80 97 111 106 124 103 145 158 122 166 170 130 132 130 104 96 94 93 95 98 101 97 84 66 54 32 10 3 357 355
63 48 53 16 326 51 106 161 101 113 133 124 146 91 70 122 79 81 114 135 120 130 178 186 66 133 137 131 127 118 110 104 104 99 86 72 65 52 42 37 30 21 20 13
55 41 48 33 83 49 40 31 73 83 72 81 85 76 64 31 69 60 120 84 152 199 206 168 150 147 151 150 142 141 118 91 87 81 76 66 60 64 58 50 44 43 32 17
71 41 79 66 79 67 68 55 89 36 73 82 97 71 67 48 104 44 128 167 202 245 104 134 148 153 150 144 134 116 105 102 95 84 75 62 58 66 70 49 36 22 15 7
56 54 94 93 95 66 53 41 67 17 29 35 44 96 116 98 114 167 176 193 164 146 131 120 132 149 135 146 121 99 102 104 97 85 79 69 57 51 43 33 21 15 12 6
51 51 18 32 63 59 54 52 44 326 36 74 101 118 72 126 134 136 163 83 113 123 116 124 139 148 139 143 136 124 113 105 97 85 72 65 53 46 35 20 7 359 355 349